| time (UTC) | temp F | wind direction | speed MPH | gust MPH | rain 1hr in | rain 24hr in | rain mn in | humidity % | barometer mb |
| 20260507180418 | 65 | 319 | 2.0 | 7.0 | 0.00 | 0.00 | 0.00 | 23 | 1010.5 |
| 20260507180117 | 65 | 46 | 2.0 | 6.0 | 0.00 | 0.00 | 0.00 | 27 | 1010.6 |
| 20260507175807 | 65 | 340 | 2.0 | 6.0 | 0.00 | 0.00 | 0.00 | 28 | 1010.6 |
| 20260507175508 | 65 | 238 | 2.0 | 6.0 | 0.00 | 0.00 | 0.00 | 26 | 1010.6 |
| 20260507175156 | 64 | 28 | 2.0 | 4.0 | 0.00 | 0.00 | 0.00 | 26 | 1010.7 |
| 20260507171625 | 64 | 312 | 1.0 | 9.0 | 0.00 | 0.00 | 0.00 | 27 | 1011.5 |
| 20260507171323 | 64 | 312 | 1.0 | 9.0 | 0.00 | 0.00 | 0.00 | 27 | 1011.5 |
| 20260507170558 | 64 | 312 | 1.0 | 9.0 | 0.00 | 0.00 | 0.00 | 27 | 1011.5 |
| 20260507170256 | 64 | 173 | 2.0 | 9.0 | 0.00 | 0.00 | 0.00 | 27 | 1011.5 |
| 20260507165948 | 64 | 200 | 3.0 | 9.0 | 0.00 | 0.00 | 0.00 | 27 | 1011.6 |
| 20260507165640 | 64 | 134 | 3.0 | 9.0 | 0.00 | 0.00 | 0.00 | 24 | 1011.6 |
| 20260507164920 | 63 | 259 | 2.0 | 9.0 | 0.00 | 0.00 | 0.00 | 24 | 1011.7 |
| 20260507164616 | 64 | 254 | 3.0 | 9.0 | 0.00 | 0.00 | 0.00 | 27 | 1011.7 |
| 20260507163901 | 63 | 242 | 4.0 | 11.0 | 0.00 | 0.00 | 0.00 | 27 | 1011.8 |
| 20260507163600 | 63 | 284 | 4.0 | 11.0 | 0.00 | 0.00 | 0.00 | 27 | 1011.9 |
| 20260507163301 | 63 | 240 | 4.0 | 11.0 | 0.00 | 0.00 | 0.00 | 26 | 1011.9 |
| 20260507162951 | 63 | 292 | 4.0 | 13.0 | 0.00 | 0.00 | 0.00 | 27 | 1012.1 |
| 20260507162231 | 62 | 259 | 4.0 | 13.0 | 0.00 | 0.00 | 0.00 | 29 | 1012.2 |
| 20260507161509 | 61 | 92 | 3.0 | 13.0 | 0.00 | 0.00 | 0.00 | 29 | 1012.2 |
| 20260507161157 | 61 | 5 | 3.0 | 13.0 | 0.00 | 0.00 | 0.00 | 27 | 1012.3 |
| 20260507160852 | 61 | 96 | 2.0 | 7.0 | 0.00 | 0.00 | 0.00 | 27 | 1012.5 |
| 20260507155219 | 61 | 339 | 3.0 | 13.0 | 0.00 | 0.00 | 0.00 | 31 | 1012.4 |
| 20260507154501 | 60 | 22 | 2.0 | 9.0 | 0.00 | 0.00 | 0.00 | 31 | 1012.4 |
| 20260507154151 | 60 | 335 | 3.0 | 9.0 | 0.00 | 0.00 | 0.00 | 29 | 1012.4 |
| 20260507153438 | 59 | 325 | 3.0 | 9.0 | 0.00 | 0.00 | 0.00 | 29 | 1012.5 |
| 20260507152705 | 59 | 22 | 3.0 | 9.0 | 0.00 | 0.00 | 0.00 | 30 | 1012.7 |
| 20260507152359 | 59 | 24 | 2.0 | 9.0 | 0.00 | 0.00 | 0.00 | 30 | 1012.8 |
| 20260507152053 | 59 | 281 | 3.0 | 9.0 | 0.00 | 0.00 | 0.00 | 31 | 1012.9 |
| 20260507151757 | 59 | 15 | 3.0 | 9.0 | 0.00 | 0.00 | 0.00 | 28 | 1012.9 |
| 20260507151451 | 59 | 5 | 3.0 | 9.0 | 0.00 | 0.00 | 0.00 | 30 | 1013.1 |
| 20260507151138 | 59 | 71 | 2.0 | 10.0 | 0.00 | 0.00 | 0.00 | 34 | 1013.1 |
| 20260507150828 | 58 | 302 | 3.0 | 10.0 | 0.00 | 0.00 | 0.00 | 30 | 1013.1 |
| 20260507150522 | 58 | 277 | 3.0 | 10.0 | 0.00 | 0.00 | 0.00 | 29 | 1013.1 |
| 20260507150220 | 58 | 26 | 3.0 | 11.0 | 0.00 | 0.00 | 0.00 | 33 | 1013.3 |
| 20260507145922 | 58 | 355 | 3.0 | 11.0 | 0.00 | 0.00 | 0.00 | 30 | 1013.3 |
| 20260507145626 | 57 | 30 | 4.0 | 11.0 | 0.00 | 0.01 | 0.00 | 30 | 1013.4 |
| 20260507145316 | 57 | 41 | 4.0 | 11.0 | 0.00 | 0.01 | 0.00 | 30 | 1013.3 |
| 20260507145021 | 57 | 276 | 4.0 | 11.0 | 0.00 | 0.01 | 0.00 | 33 | 1013.5 |
| 20260507144708 | 57 | 249 | 3.0 | 11.0 | 0.00 | 0.02 | 0.00 | 30 | 1013.4 |
| 20260507144401 | 57 | 345 | 3.0 | 8.0 | 0.00 | 0.03 | 0.00 | 29 | 1013.4 |
| 20260507144057 | 57 | 342 | 3.0 | 11.0 | 0.00 | 0.03 | 0.00 | 31 | 1013.5 |
| 20260507143755 | 57 | 45 | 3.0 | 11.0 | 0.00 | 0.04 | 0.00 | 32 | 1013.5 |
| 20260507143042 | 57 | 309 | 3.0 | 11.0 | 0.00 | 0.06 | 0.00 | 34 | 1013.6 |
| 20260507142729 | 56 | 350 | 2.0 | 11.0 | 0.00 | 0.07 | 0.00 | 33 | 1013.6 |
| 20260507142425 | 56 | 249 | 3.0 | 11.0 | 0.00 | 0.08 | 0.00 | 32 | 1013.7 |
| 20260507142112 | 56 | 335 | 3.0 | 10.0 | 0.00 | 0.09 | 0.00 | 31 | 1013.7 |
| 20260507141810 | 56 | 5 | 2.0 | 10.0 | 0.00 | 0.09 | 0.00 | 31 | 1013.7 |
| 20260507141513 | 56 | 355 | 3.0 | 10.0 | 0.00 | 0.09 | 0.00 | 31 | 1013.7 |
| 20260507140745 | 55 | 38 | 2.0 | 10.0 | 0.00 | 0.12 | 0.00 | 33 | 1013.8 |
| 20260507140442 | 55 | 327 | 2.0 | 7.0 | 0.00 | 0.14 | 0.00 | 33 | 1013.9 |
| 20260507140130 | 55 | 331 | 2.0 | 7.0 | 0.00 | 0.16 | 0.00 | 37 | 1013.9 |
| 20260507135833 | 54 | 21 | 2.0 | 7.0 | 0.00 | 0.17 | 0.00 | 34 | 1014.0 |
| 20260507135537 | 54 | 68 | 1.0 | 7.0 | 0.00 | 0.17 | 0.00 | 35 | 1014.1 |
| 20260507135228 | 54 | 68 | 1.0 | 10.0 | 0.00 | 0.19 | 0.00 | 35 | 1014.0 |
| 20260507134927 | 54 | 132 | 2.0 | 10.0 | 0.00 | 0.19 | 0.00 | 34 | 1014.1 |
| 20260507134616 | 54 | 9 | 1.0 | 10.0 | 0.00 | 0.19 | 0.00 | 35 | 1014.1 |
| 20260507134320 | 54 | 13 | 2.0 | 10.0 | 0.00 | 0.19 | 0.00 | 36 | 1014.2 |
| 20260507134022 | 53 | 355 | 2.0 | 10.0 | 0.00 | 0.19 | 0.00 | 35 | 1014.2 |
| 20260507133724 | 53 | 282 | 2.0 | 10.0 | 0.00 | 0.19 | 0.00 | 34 | 1014.2 |
| 20260507133411 | 54 | 329 | 2.0 | 7.0 | 0.00 | 0.19 | 0.00 | 36 | 1014.4 |
| 20260507132657 | 54 | 343 | 2.0 | 6.0 | 0.00 | 0.20 | 0.00 | 36 | 1014.3 |
| 20260507132349 | 53 | 271 | 1.0 | 6.0 | 0.00 | 0.21 | 0.00 | 37 | 1014.3 |
| 20260507131639 | 53 | 275 | 1.0 | 2.0 | 0.00 | 0.22 | 0.00 | 36 | 1014.3 |
| 20260507131335 | 53 | 60 | 2.0 | 8.0 | 0.00 | 0.22 | 0.00 | 38 | 1014.3 |
| 20260507131025 | 53 | 24 | 2.0 | 8.0 | 0.00 | 0.23 | 0.00 | 36 | 1014.2 |
| 20260507130713 | 53 | 28 | 2.0 | 8.0 | 0.00 | 0.23 | 0.00 | 39 | 1014.2 |
| 20260507125943 | 53 | 292 | 2.0 | 7.0 | 0.00 | 0.23 | 0.00 | 38 | 1014.1 |
| 20260507125640 | 53 | 259 | 2.0 | 7.0 | 0.00 | 0.23 | 0.00 | 38 | 1014.1 |
| 20260507125328 | 53 | 267 | 2.0 | 7.0 | 0.00 | 0.23 | 0.00 | 37 | 1014.1 |
| 20260507125028 | 53 | 281 | 2.0 | 7.0 | 0.00 | 0.23 | 0.00 | 36 | 1014.1 |
| 20260507124732 | 53 | 240 | 2.0 | 7.0 | 0.00 | 0.23 | 0.00 | 35 | 1014.1 |
| 20260507123956 | 53 | 323 | 1.0 | 7.0 | 0.00 | 0.23 | 0.00 | 36 | 1014.1 |
| 20260507123651 | 53 | 321 | 1.0 | 7.0 | 0.00 | 0.24 | 0.00 | 35 | 1014.1 |
| 20260507123338 | 53 | 267 | 1.0 | 7.0 | 0.00 | 0.24 | 0.00 | 36 | 1014.1 |
| 20260507122605 | 53 | 348 | 2.0 | 7.0 | 0.00 | 0.24 | 0.00 | 35 | 1014.2 |
| 20260507122300 | 53 | 15 | 2.0 | 8.0 | 0.00 | 0.24 | 0.00 | 34 | 1014.2 |
| 20260507121947 | 53 | 355 | 2.0 | 8.0 | 0.00 | 0.24 | 0.00 | 34 | 1014.3 |
| 20260507121224 | 54 | 294 | 2.0 | 8.0 | 0.00 | 0.24 | 0.00 | 33 | 1014.2 |
| 20260507120918 | 54 | 273 | 1.0 | 8.0 | 0.00 | 0.25 | 0.00 | 33 | 1014.2 |
| 20260507120157 | 54 | 5 | 1.0 | 6.0 | 0.00 | 0.25 | 0.00 | 33 | 1014.2 |
| 20260507115850 | 54 | 48 | 1.0 | 6.0 | 0.00 | 0.25 | 0.00 | 34 | 1014.2 |
| 20260507115540 | 54 | 309 | 1.0 | 6.0 | 0.00 | 0.26 | 0.00 | 33 | 1014.1 |
| 20260507114820 | 54 | 251 | 0.0 | 5.0 | 0.00 | 0.26 | 0.00 | 36 | 1014.1 |
| 20260507114520 | 54 | 232 | 1.0 | 3.0 | 0.00 | 0.27 | 0.00 | 35 | 1014.2 |
| 20260507114211 | 53 | 30 | 1.0 | 7.0 | 0.00 | 0.27 | 0.00 | 35 | 1014.2 |
| 20260507113909 | 53 | 306 | 1.0 | 7.0 | 0.00 | 0.27 | 0.00 | 35 | 1014.2 |
| 20260507112729 | 52 | 284 | 1.0 | 7.0 | 0.00 | 0.28 | 0.00 | 37 | 1014.0 |
| 20260507112416 | 51 | 325 | 1.0 | 7.0 | 0.00 | 0.28 | 0.00 | 39 | 1013.9 |
| 20260507112105 | 51 | 5 | 1.0 | 4.0 | 0.00 | 0.29 | 0.00 | 39 | 1013.9 |
| 20260507111757 | 51 | 333 | 0.0 | 5.0 | 0.00 | 0.29 | 0.00 | 41 | 1013.7 |
| 20260507111447 | 50 | 355 | 0.0 | 5.0 | 0.00 | 0.29 | 0.00 | 40 | 1013.7 |
| 20260507111144 | 50 | 287 | 0.0 | 5.0 | 0.00 | 0.29 | 0.00 | 40 | 1013.7 |
| 20260507110840 | 50 | 327 | 0.0 | 5.0 | 0.00 | 0.29 | 0.00 | 39 | 1013.7 |
| 20260507110539 | 50 | 338 | 0.0 | 5.0 | 0.00 | 0.29 | 0.00 | 40 | 1013.6 |
| 20260507110229 | 50 | 341 | 0.0 | 5.0 | 0.00 | 0.29 | 0.00 | 41 | 1013.7 |
| 20260507105927 | 50 | 62 | 0.0 | 4.0 | 0.00 | 0.29 | 0.00 | 39 | 1013.5 |
| 20260507104738 | 50 | 241 | 0.0 | 3.0 | 0.00 | 0.29 | 0.00 | 42 | 1013.4 |
| 20260507104006 | 50 | 290 | 0.0 | 3.0 | 0.00 | 0.29 | 0.00 | 44 | 1013.3 |
| 20260507103706 | 50 | 321 | 0.0 | 5.0 | 0.00 | 0.29 | 0.00 | 42 | 1013.3 |
| 20260507103352 | 50 | 17 | 0.0 | 5.0 | 0.00 | 0.29 | 0.00 | 42 | 1013.3 |
| 20260507103052 | 50 | 22 | 0.0 | 5.0 | 0.00 | 0.29 | 0.00 | 42 | 1013.2 |
| 20260507102739 | 50 | 30 | 0.0 | 1.0 | 0.00 | 0.29 | 0.00 | 43 | 1013.1 |
| 20260507102442 | 50 | 330 | 0.0 | 1.0 | 0.00 | 0.29 | 0.00 | 42 | 1013.2 |
| 20260507102136 | 50 | 347 | 0.0 | 1.0 | 0.00 | 0.29 | 0.00 | 44 | 1013.1 |
| 20260507101838 | 50 | 347 | 0.0 | 1.0 | 0.00 | 0.29 | 0.00 | 42 | 1013.2 |
| 20260507101542 | 50 | 11 | 0.0 | 1.0 | 0.00 | 0.29 | 0.00 | 42 | 1013.2 |
| 20260507101240 | 50 | 313 | 0.0 | 1.0 | 0.00 | 0.29 | 0.00 | 42 | 1013.1 |
| 20260507100938 | 50 | 313 | 0.0 | 1.0 | 0.00 | 0.29 | 0.00 | 43 | 1013.0 |
| 20260507100639 | 51 | 304 | 1.0 | 2.0 | 0.00 | 0.29 | 0.00 | 42 | 1013.0 |
| 20260507100330 | 51 | 294 | 0.0 | 2.0 | 0.00 | 0.29 | 0.00 | 42 | 1012.8 |
| 20260507100032 | 51 | 288 | 0.0 | 5.0 | 0.00 | 0.29 | 0.00 | 43 | 1012.8 |
| 20260507095724 | 50 | 328 | 0.0 | 5.0 | 0.00 | 0.29 | 0.00 | 41 | 1012.9 |
| 20260507095414 | 51 | 11 | 0.0 | 0.0 | 0.00 | 0.29 | 0.00 | 43 | 1013.0 |
| 20260507095118 | 51 | 13 | 0.0 | 3.0 | 0.00 | 0.29 | 0.00 | 42 | 1013.0 |
| 20260507094803 | 51 | 311 | 0.0 | 2.0 | 0.00 | 0.29 | 0.00 | 43 | 1012.8 |
| 20260507094503 | 51 | 288 | 0.0 | 2.0 | 0.00 | 0.29 | 0.00 | 43 | 1012.8 |
| 20260507094201 | 51 | 310 | 0.0 | 0.0 | 0.00 | 0.29 | 0.00 | 43 | 1012.8 |
| 20260507093900 | 51 | 304 | 1.0 | 6.0 | 0.00 | 0.29 | 0.00 | 43 | 1012.7 |
| 20260507093602 | 51 | 307 | 1.0 | 6.0 | 0.00 | 0.29 | 0.00 | 43 | 1012.7 |
| 20260507093259 | 51 | 282 | 1.0 | 6.0 | 0.00 | 0.29 | 0.00 | 43 | 1012.8 |
| 20260507092951 | 50 | 292 | 1.0 | 6.0 | 0.00 | 0.29 | 0.00 | 43 | 1012.8 |
| 20260507092228 | 51 | 324 | 0.0 | 6.0 | 0.00 | 0.29 | 0.00 | 44 | 1012.5 |
| 20260507091922 | 51 | 24 | 0.0 | 6.0 | 0.00 | 0.29 | 0.00 | 45 | 1012.5 |
| 20260507091618 | 51 | 248 | 0.0 | 3.0 | 0.00 | 0.29 | 0.00 | 44 | 1012.5 |
| 20260507091313 | 51 | 271 | 0.0 | 3.0 | 0.00 | 0.29 | 0.00 | 44 | 1012.4 |
| 20260507091002 | 51 | 343 | 0.0 | 3.0 | 0.00 | 0.29 | 0.00 | 43 | 1012.5 |
| 20260507090651 | 51 | 307 | 0.0 | 2.0 | 0.00 | 0.29 | 0.00 | 44 | 1012.4 |
| 20260507085933 | 51 | 278 | 0.0 | 6.0 | 0.00 | 0.29 | 0.00 | 44 | 1012.3 |
| 20260507084748 | 51 | 325 | 1.0 | 5.0 | 0.00 | 0.29 | 0.00 | 45 | 1012.4 |
| 20260507084449 | 51 | 270 | 1.0 | 5.0 | 0.00 | 0.29 | 0.00 | 45 | 1012.3 |
| 20260507083720 | 51 | 348 | 0.0 | 5.0 | 0.00 | 0.29 | 0.00 | 46 | 1012.3 |
| 20260507083412 | 51 | 21 | 0.0 | 5.0 | 0.00 | 0.29 | 0.00 | 47 | 1012.5 |
| 20260507082651 | 51 | 337 | 0.0 | 0.0 | 0.00 | 0.29 | 0.00 | 48 | 1012.3 |
| 20260507082355 | 52 | 336 | 0.0 | 0.0 | 0.00 | 0.29 | 0.00 | 47 | 1012.3 |
| 20260507081207 | 52 | 355 | 0.0 | 0.0 | 0.00 | 0.29 | 0.00 | 49 | 1012.3 |
| 20260507080908 | 52 | 291 | 0.0 | 0.0 | 0.00 | 0.29 | 0.00 | 46 | 1012.4 |
| 20260507080611 | 52 | 291 | 0.0 | 0.0 | 0.00 | 0.29 | 0.00 | 47 | 1012.4 |
| 20260507080309 | 52 | 11 | 0.0 | 2.0 | 0.00 | 0.29 | 0.00 | 49 | 1012.5 |
| 20260507080007 | 52 | 42 | 0.0 | 2.0 | 0.00 | 0.29 | 0.00 | 49 | 1012.4 |
| 20260507075708 | 52 | 19 | 0.0 | 2.0 | 0.00 | 0.29 | 0.00 | 47 | 1012.4 |
| 20260507075402 | 52 | 38 | 0.0 | 1.0 | 0.00 | 0.29 | 0.00 | 48 | 1012.5 |
| 20260507075054 | 52 | 5 | 0.0 | 0.0 | 0.00 | 0.29 | 0.00 | 48 | 1012.4 |
| 20260507074758 | 52 | 51 | 0.0 | 0.0 | 0.00 | 0.29 | 0.00 | 51 | 1012.4 |
| 20260507074032 | 52 | 61 | 0.0 | 0.0 | 0.00 | 0.29 | 0.00 | 49 | 1012.4 |
| 20260507073726 | 52 | 78 | 0.0 | 0.0 | 0.00 | 0.29 | 0.00 | 49 | 1012.3 |
| 20260507073423 | 52 | 36 | 0.0 | 2.0 | 0.00 | 0.29 | 0.00 | 50 | 1012.4 |
| 20260507073125 | 52 | 38 | 0.0 | 2.0 | 0.00 | 0.29 | 0.00 | 51 | 1012.4 |
| 20260507072820 | 52 | 40 | 0.0 | 2.0 | 0.00 | 0.29 | 0.00 | 48 | 1012.5 |
| 20260507072515 | 52 | 11 | 0.0 | 6.0 | 0.00 | 0.29 | 0.00 | 47 | 1012.5 |
| 20260507072210 | 52 | 0 | 0.0 | 6.0 | 0.00 | 0.29 | 0.00 | 48 | 1012.5 |
| 20260507071453 | 52 | 48 | 0.0 | 6.0 | 0.00 | 0.29 | 0.00 | 49 | 1012.4 |
| 20260507071156 | 52 | 239 | 0.0 | 6.0 | 0.00 | 0.29 | 0.00 | 49 | 1012.5 |
| 20260507070855 | 52 | 355 | 0.0 | 6.0 | 0.00 | 0.29 | 0.00 | 49 | 1012.4 |
| 20260507070542 | 52 | 0 | 0.0 | 3.0 | 0.00 | 0.29 | 0.00 | 50 | 1012.3 |
| 20260507070244 | 52 | 82 | 0.0 | 0.0 | 0.00 | 0.29 | 0.00 | 51 | 1012.3 |
| 20260507065940 | 52 | 197 | 1.0 | 6.0 | 0.00 | 0.29 | 0.00 | 51 | 1012.4 |
| 20260507065627 | 52 | 0 | 0.0 | 6.0 | 0.00 | 0.29 | 0.00 | 52 | 1012.4 |
| 20260507065331 | 52 | 355 | 1.0 | 6.0 | 0.00 | 0.29 | 0.00 | 51 | 1012.4 |
| 20260507065035 | 52 | 15 | 0.0 | 4.0 | 0.00 | 0.29 | 0.00 | 52 | 1012.4 |
| 20260507064727 | 53 | 345 | 1.0 | 4.0 | 0.00 | 0.29 | 0.00 | 52 | 1012.4 |
| 20260507064431 | 52 | 309 | 1.0 | 4.0 | 0.00 | 0.29 | 0.00 | 51 | 1012.5 |
| 20260507064135 | 52 | 265 | 1.0 | 6.0 | 0.00 | 0.29 | 0.00 | 52 | 1012.5 |
| 20260507063826 | 53 | 335 | 1.0 | 6.0 | 0.00 | 0.29 | 0.00 | 52 | 1012.3 |
| 20260507063530 | 53 | 309 | 1.0 | 6.0 | 0.00 | 0.29 | 0.00 | 54 | 1012.3 |
| 20260507063220 | 53 | 344 | 1.0 | 9.0 | 0.00 | 0.29 | 0.00 | 54 | 1012.3 |
| 20260507062914 | 53 | 242 | 1.0 | 9.0 | 0.00 | 0.29 | 0.00 | 55 | 1012.4 |
| 20260507062603 | 53 | 16 | 2.0 | 9.0 | 0.00 | 0.29 | 0.00 | 56 | 1012.3 |
| 20260507062300 | 53 | 0 | 3.0 | 9.0 | 0.00 | 0.29 | 0.00 | 56 | 1012.4 |
| 20260507062004 | 53 | 34 | 3.0 | 9.0 | 0.00 | 0.29 | 0.00 | 56 | 1012.5 |
| 20260507061652 | 53 | 311 | 2.0 | 9.0 | 0.00 | 0.29 | 0.00 | 57 | 1012.3 |
| 20260507060912 | 53 | 293 | 1.0 | 7.0 | 0.00 | 0.29 | 0.00 | 61 | 1012.3 |
| 20260507060609 | 53 | 310 | 1.0 | 7.0 | 0.00 | 0.29 | 0.00 | 62 | 1012.3 |
| 20260507060306 | 54 | 344 | 1.0 | 7.0 | 0.00 | 0.29 | 0.00 | 62 | 1012.3 |
| 20260507060003 | 54 | 340 | 2.0 | 7.0 | 0.00 | 0.29 | 0.00 | 63 | 1012.3 |
| 20260507054808 | 54 | 287 | 1.0 | 7.0 | 0.00 | 0.29 | 0.00 | 62 | 1012.3 |
| 20260507054458 | 54 | 351 | 1.0 | 7.0 | 0.00 | 0.29 | 0.00 | 62 | 1012.3 |
| 20260507054146 | 53 | 271 | 1.0 | 7.0 | 0.00 | 0.29 | 0.00 | 62 | 1012.3 |
| 20260507053415 | 53 | 298 | 1.0 | 7.0 | 0.00 | 0.29 | 0.00 | 63 | 1012.3 |
| 20260507053118 | 54 | 312 | 1.0 | 4.0 | 0.00 | 0.29 | 0.00 | 64 | 1012.4 |
| 20260507052402 | 54 | 355 | 0.0 | 4.0 | 0.00 | 0.29 | 0.00 | 65 | 1012.3 |
| 20260507052053 | 54 | 294 | 0.0 | 1.0 | 0.00 | 0.29 | 0.00 | 66 | 1012.4 |
| 20260507051740 | 54 | 298 | 0.0 | 2.0 | 0.00 | 0.29 | 0.00 | 66 | 1012.4 |
| 20260507051438 | 54 | 297 | 0.0 | 2.0 | 0.00 | 0.29 | 0.00 | 66 | 1012.3 |
| 20260507051140 | 54 | 298 | 0.0 | 1.0 | 0.00 | 0.29 | 0.00 | 66 | 1012.2 |
| 20260507050840 | 54 | 275 | 0.0 | 1.0 | 0.00 | 0.29 | 0.00 | 65 | 1012.2 |
| 20260507050540 | 54 | 277 | 0.0 | 0.0 | 0.00 | 0.29 | 0.00 | 65 | 1012.1 |
| 20260507050228 | 54 | 244 | 0.0 | 3.0 | 0.00 | 0.29 | 0.00 | 65 | 1012.3 |
| 20260507045507 | 55 | 275 | 1.0 | 5.0 | 0.00 | 0.29 | 0.00 | 65 | 1012.3 |
| 20260507045154 | 55 | 234 | 0.0 | 5.0 | 0.00 | 0.29 | 0.00 | 63 | 1012.1 |
| 20260507044014 | 55 | 343 | 1.0 | 4.0 | 0.00 | 0.29 | 0.00 | 63 | 1012.2 |
| 20260507043714 | 55 | 17 | 1.0 | 4.0 | 0.00 | 0.29 | 0.00 | 62 | 1012.2 |
| 20260507043415 | 55 | 350 | 1.0 | 4.0 | 0.00 | 0.29 | 0.00 | 61 | 1012.3 |
| 20260507043104 | 55 | 325 | 1.0 | 4.0 | 0.00 | 0.29 | 0.00 | 61 | 1012.5 |
| 20260507042758 | 55 | 333 | 1.0 | 4.0 | 0.00 | 0.29 | 0.00 | 61 | 1012.5 |
| 20260507042453 | 55 | 355 | 1.0 | 4.0 | 0.00 | 0.29 | 0.00 | 61 | 1012.6 |
| 20260507042140 | 55 | 312 | 1.0 | 7.0 | 0.00 | 0.29 | 0.00 | 62 | 1012.6 |
| 20260507041833 | 56 | 323 | 1.0 | 7.0 | 0.00 | 0.29 | 0.00 | 62 | 1012.6 |
| 20260507041105 | 56 | 15 | 1.0 | 7.0 | 0.00 | 0.29 | 0.00 | 61 | 1012.3 |
| 20260507040806 | 56 | 261 | 1.0 | 7.0 | 0.00 | 0.29 | 0.00 | 60 | 1012.4 |
| 20260507040456 | 56 | 347 | 1.0 | 7.0 | 0.00 | 0.29 | 0.00 | 60 | 1012.3 |
| 20260507035738 | 56 | 319 | 1.0 | 0.0 | 0.00 | 0.29 | 0.28 | 61 | 1012.4 |
| 20260507035426 | 56 | 324 | 1.0 | 5.0 | 0.00 | 0.29 | 0.28 | 60 | 1012.3 |
| 20260507035126 | 56 | 279 | 0.0 | 3.0 | 0.00 | 0.29 | 0.28 | 60 | 1012.4 |
| 20260507034829 | 56 | 294 | 0.0 | 3.0 | 0.00 | 0.29 | 0.28 | 60 | 1012.4 |
| 20260507034526 | 56 | 267 | 0.0 | 3.0 | 0.00 | 0.29 | 0.28 | 60 | 1012.5 |
| 20260507034215 | 56 | 23 | 0.0 | 3.0 | 0.00 | 0.29 | 0.28 | 60 | 1012.4 |
| 20260507033446 | 56 | 264 | 0.0 | 5.0 | 0.00 | 0.29 | 0.28 | 60 | 1012.3 |
| 20260507032306 | 56 | 264 | 1.0 | 5.0 | 0.00 | 0.29 | 0.28 | 60 | 1012.4 |
| 20260507031957 | 56 | 280 | 1.0 | 3.0 | 0.00 | 0.29 | 0.28 | 60 | 1012.3 |
| 20260507031221 | 56 | 295 | 2.0 | 9.0 | 0.00 | 0.29 | 0.28 | 60 | 1012.3 |
| 20260507030908 | 56 | 336 | 1.0 | 9.0 | 0.00 | 0.29 | 0.28 | 60 | 1012.1 |
| 20260507030610 | 56 | 279 | 1.0 | 5.0 | 0.00 | 0.29 | 0.28 | 59 | 1011.8 |
| 20260507030311 | 56 | 301 | 0.0 | 4.0 | 0.00 | 0.29 | 0.28 | 60 | 1011.7 |
| 20260507030005 | 56 | 319 | 0.0 | 4.0 | 0.00 | 0.29 | 0.28 | 60 | 1011.8 |
| 20260507025650 | 56 | 222 | 0.0 | 4.0 | 0.00 | 0.29 | 0.28 | 59 | 1011.8 |
| 20260507025348 | 56 | 326 | 0.0 | 4.0 | 0.00 | 0.29 | 0.28 | 60 | 1011.8 |
| 20260507024633 | 57 | 0 | 1.0 | 4.0 | 0.00 | 0.29 | 0.28 | 60 | 1012.0 |
| 20260507024337 | 57 | 345 | 1.0 | 4.0 | 0.00 | 0.29 | 0.28 | 60 | 1012.1 |
| 20260507024029 | 57 | 319 | 1.0 | 4.0 | 0.00 | 0.29 | 0.28 | 60 | 1011.6 |
| 20260507023716 | 57 | 0 | 0.0 | 4.0 | 0.00 | 0.29 | 0.28 | 61 | 1011.5 |
| 20260507023418 | 57 | 26 | 0.0 | 4.0 | 0.00 | 0.29 | 0.28 | 61 | 1011.7 |
| 20260507022701 | 57 | 335 | 0.0 | 5.0 | 0.00 | 0.29 | 0.28 | 62 | 1012.0 |
| 20260507022359 | 57 | 328 | 0.0 | 5.0 | 0.00 | 0.29 | 0.28 | 62 | 1012.0 |
| 20260507022058 | 57 | 342 | 1.0 | 5.0 | 0.00 | 0.29 | 0.28 | 62 | 1011.9 |
| 20260507021748 | 57 | 15 | 1.0 | 11.0 | 0.00 | 0.29 | 0.28 | 62 | 1012.0 |
| 20260507021446 | 57 | 271 | 1.0 | 11.0 | 0.00 | 0.29 | 0.28 | 62 | 1011.9 |
| 20260507021141 | 57 | 297 | 2.0 | 11.0 | 0.00 | 0.29 | 0.28 | 62 | 1011.8 |
| 20260507020835 | 57 | 317 | 3.0 | 11.0 | 0.00 | 0.29 | 0.28 | 62 | 1011.5 |
| 20260507020528 | 57 | 331 | 3.0 | 11.0 | 0.00 | 0.29 | 0.28 | 62 | 1011.6 |
| 20260507015757 | 58 | 350 | 3.0 | 9.0 | 0.00 | 0.29 | 0.28 | 63 | 1011.6 |
| 20260507015501 | 58 | 349 | 3.0 | 9.0 | 0.00 | 0.29 | 0.28 | 62 | 1011.6 |
| 20260507014727 | 58 | 346 | 3.0 | 9.0 | 0.00 | 0.29 | 0.28 | 63 | 1011.5 |
| 20260507014429 | 58 | 311 | 2.0 | 10.0 | 0.00 | 0.29 | 0.28 | 62 | 1011.6 |
| 20260507014126 | 58 | 300 | 2.0 | 10.0 | 0.00 | 0.29 | 0.28 | 63 | 1011.8 |
| 20260507013828 | 58 | 308 | 2.0 | 10.0 | 0.00 | 0.29 | 0.28 | 63 | 1011.6 |
| 20260507013530 | 58 | 325 | 2.0 | 12.0 | 0.00 | 0.29 | 0.28 | 62 | 1011.5 |
| 20260507013227 | 58 | 242 | 3.0 | 12.0 | 0.00 | 0.29 | 0.28 | 62 | 1011.3 |
| 20260507012926 | 58 | 305 | 3.0 | 12.0 | 0.00 | 0.29 | 0.28 | 62 | 1011.4 |
| 20260507012619 | 58 | 355 | 3.0 | 12.0 | 0.00 | 0.29 | 0.28 | 62 | 1011.6 |
| 20260507012319 | 59 | 274 | 3.0 | 12.0 | 0.00 | 0.29 | 0.28 | 62 | 1011.5 |
| 20260507012009 | 59 | 308 | 3.0 | 12.0 | 0.00 | 0.29 | 0.28 | 62 | 1011.5 |
| 20260507011707 | 59 | 338 | 3.0 | 12.0 | 0.00 | 0.29 | 0.28 | 62 | 1011.6 |
| 20260507011410 | 59 | 331 | 3.0 | 8.0 | 0.00 | 0.29 | 0.28 | 63 | 1011.4 |
| 20260507011104 | 59 | 342 | 3.0 | 8.0 | 0.00 | 0.29 | 0.28 | 63 | 1011.5 |
| 20260507010342 | 59 | 316 | 2.0 | 8.0 | 0.00 | 0.29 | 0.28 | 62 | 1011.6 |
| 20260507005614 | 60 | 311 | 1.0 | 7.0 | 0.00 | 0.29 | 0.28 | 62 | 1011.4 |
| 20260507005306 | 60 | 346 | 1.0 | 7.0 | 0.00 | 0.29 | 0.28 | 61 | 1011.3 |
| 20260507004953 | 60 | 331 | 1.0 | 7.0 | 0.00 | 0.29 | 0.28 | 61 | 1011.3 |
| 20260507004230 | 60 | 344 | 1.0 | 8.0 | 0.00 | 0.29 | 0.28 | 61 | 1011.2 |
| 20260507003924 | 61 | 26 | 1.0 | 8.0 | 0.00 | 0.29 | 0.28 | 62 | 1011.1 |
| 20260507003614 | 61 | 173 | 2.0 | 8.0 | 0.00 | 0.29 | 0.28 | 62 | 1011.0 |
| 20260507002857 | 61 | 295 | 1.0 | 8.0 | 0.00 | 0.29 | 0.28 | 61 | 1010.9 |
| 20260507002126 | 61 | 291 | 0.0 | 8.0 | 0.00 | 0.29 | 0.28 | 61 | 1011.1 |
| 20260507001821 | 62 | 192 | 1.0 | 8.0 | 0.00 | 0.29 | 0.28 | 60 | 1011.0 |
| 20260507001523 | 62 | 243 | 1.0 | 8.0 | 0.00 | 0.29 | 0.28 | 60 | 1010.9 |
| 20260507001222 | 62 | 279 | 1.0 | 11.0 | 0.00 | 0.29 | 0.28 | 60 | 1010.6 |
| 20260507000915 | 62 | 304 | 1.0 | 11.0 | 0.00 | 0.29 | 0.28 | 60 | 1010.4 |
| 20260507000615 | 62 | 310 | 2.0 | 11.0 | 0.00 | 0.29 | 0.28 | 60 | 1010.3 |
| 20260507000321 | 62 | 168 | 3.0 | 11.0 | 0.00 | 0.29 | 0.28 | 59 | 1010.2 |
| 20260507000012 | 62 | 278 | 2.0 | 11.0 | 0.00 | 0.29 | 0.28 | 59 | 1010.2 |
| 20260506235713 | 62 | 277 | 2.0 | 11.0 | 0.00 | 0.29 | 0.28 | 59 | 1010.1 |
| 20260506235402 | 62 | 286 | 3.0 | 11.0 | 0.00 | 0.29 | 0.28 | 59 | 1010.0 |
| 20260506235101 | 62 | 273 | 3.0 | 11.0 | 0.00 | 0.29 | 0.28 | 59 | 1010.0 |
| 20260506234754 | 62 | 280 | 3.0 | 11.0 | 0.00 | 0.29 | 0.28 | 59 | 1009.9 |
| 20260506234445 | 62 | 281 | 3.0 | 9.0 | 0.00 | 0.29 | 0.28 | 59 | 1009.7 |
| 20260506234132 | 62 | 284 | 3.0 | 9.0 | 0.00 | 0.29 | 0.28 | 59 | 1009.6 |
| 20260506233822 | 62 | 204 | 3.0 | 9.0 | 0.00 | 0.29 | 0.28 | 59 | 1009.7 |
| 20260506233526 | 63 | 310 | 2.0 | 9.0 | 0.00 | 0.29 | 0.28 | 59 | 1009.7 |
| 20260506233221 | 63 | 248 | 2.0 | 9.0 | 0.00 | 0.29 | 0.28 | 59 | 1009.4 |
| 20260506232918 | 63 | 260 | 2.0 | 8.0 | 0.00 | 0.29 | 0.28 | 59 | 1009.4 |
| 20260506232608 | 63 | 264 | 2.0 | 6.0 | 0.00 | 0.29 | 0.28 | 59 | 1009.3 |
| 20260506232300 | 63 | 223 | 2.0 | 6.0 | 0.00 | 0.29 | 0.28 | 60 | 1009.2 |
| 20260506231950 | 63 | 285 | 1.0 | 10.0 | 0.00 | 0.29 | 0.28 | 60 | 1009.2 |
| 20260506231641 | 63 | 297 | 1.0 | 10.0 | 0.00 | 0.29 | 0.28 | 59 | 1009.3 |
| 20260506231334 | 63 | 281 | 2.0 | 10.0 | 0.00 | 0.29 | 0.28 | 59 | 1009.3 |
| 20260506231033 | 64 | 299 | 3.0 | 10.0 | 0.00 | 0.29 | 0.28 | 59 | 1009.2 |
| 20260506230720 | 64 | 277 | 4.0 | 10.0 | 0.00 | 0.29 | 0.28 | 59 | 1009.4 |
| 20260506230415 | 64 | 340 | 4.0 | 10.0 | 0.00 | 0.29 | 0.28 | 59 | 1009.4 |
| 20260506230111 | 64 | 275 | 3.0 | 9.0 | 0.00 | 0.29 | 0.28 | 59 | 1009.3 |
| 20260506225809 | 64 | 284 | 2.0 | 12.0 | 0.00 | 0.29 | 0.28 | 61 | 1009.3 |
| 20260506225457 | 64 | 284 | 3.0 | 12.0 | 0.00 | 0.29 | 0.28 | 61 | 1009.2 |
| 20260506225159 | 65 | 274 | 4.0 | 12.0 | 0.00 | 0.29 | 0.28 | 61 | 1009.2 |
| 20260506224442 | 65 | 318 | 5.0 | 12.0 | 0.00 | 0.29 | 0.28 | 60 | 1009.2 |
| 20260506224145 | 65 | 294 | 4.0 | 12.0 | 0.00 | 0.29 | 0.28 | 61 | 1009.0 |
| 20260506223844 | 65 | 275 | 4.0 | 11.0 | 0.00 | 0.29 | 0.28 | 60 | 1009.0 |
| 20260506223543 | 66 | 279 | 4.0 | 11.0 | 0.00 | 0.29 | 0.28 | 60 | 1009.0 |
| 20260506222819 | 66 | 275 | 4.0 | 8.0 | 0.00 | 0.29 | 0.28 | 61 | 1008.8 |
| 20260506222511 | 66 | 296 | 3.0 | 8.0 | 0.00 | 0.29 | 0.28 | 61 | 1008.8 |
| 20260506222159 | 67 | 312 | 3.0 | 10.0 | 0.00 | 0.29 | 0.28 | 62 | 1008.8 |
| 20260506221858 | 67 | 257 | 3.0 | 10.0 | 0.00 | 0.29 | 0.28 | 62 | 1008.5 |
| 20260506221602 | 67 | 303 | 3.0 | 10.0 | 0.00 | 0.29 | 0.28 | 62 | 1008.5 |
| 20260506221303 | 67 | 275 | 4.0 | 10.0 | 0.00 | 0.29 | 0.28 | 62 | 1008.5 |
| 20260506221005 | 67 | 316 | 3.0 | 10.0 | 0.00 | 0.29 | 0.28 | 62 | 1008.4 |
| 20260506220249 | 67 | 225 | 2.0 | 6.0 | 0.00 | 0.29 | 0.28 | 64 | 1008.3 |
| 20260506215951 | 67 | 336 | 2.0 | 6.0 | 0.00 | 0.29 | 0.28 | 64 | 1008.2 |
| 20260506215656 | 67 | 248 | 2.0 | 9.0 | 0.00 | 0.29 | 0.28 | 64 | 1008.1 |
| 20260506215343 | 67 | 73 | 2.0 | 9.0 | 0.00 | 0.29 | 0.28 | 64 | 1008.0 |
| 20260506215041 | 67 | 167 | 2.0 | 9.0 | 0.00 | 0.29 | 0.28 | 64 | 1008.1 |
| 20260506214730 | 67 | 227 | 2.0 | 9.0 | 0.00 | 0.29 | 0.28 | 64 | 1008.1 |
| 20260506214433 | 67 | 277 | 2.0 | 9.0 | 0.00 | 0.29 | 0.28 | 64 | 1008.0 |
| 20260506213655 | 67 | 271 | 2.0 | 8.0 | 0.00 | 0.29 | 0.28 | 64 | 1007.9 |
| 20260506212517 | 68 | 256 | 2.0 | 7.0 | 0.00 | 0.29 | 0.28 | 64 | 1007.7 |
| 20260506212220 | 68 | 347 | 2.0 | 7.0 | 0.00 | 0.29 | 0.28 | 64 | 1007.7 |
| 20260506211914 | 68 | 217 | 1.0 | 7.0 | 0.00 | 0.29 | 0.28 | 64 | 1007.5 |
| 20260506211610 | 68 | 301 | 2.0 | 7.0 | 0.00 | 0.29 | 0.28 | 64 | 1007.6 |
| 20260506211306 | 68 | 5 | 2.0 | 7.0 | 0.00 | 0.29 | 0.28 | 64 | 1007.5 |
| 20260506210551 | 68 | 171 | 1.0 | 5.0 | 0.00 | 0.29 | 0.28 | 65 | 1007.5 |
| 20260506210254 | 68 | 215 | 1.0 | 6.0 | 0.00 | 0.29 | 0.28 | 65 | 1007.4 |
| 20260506205532 | 67 | 209 | 1.0 | 6.0 | 0.00 | 0.29 | 0.28 | 64 | 1007.3 |
| 20260506205226 | 68 | 221 | 1.0 | 6.0 | 0.00 | 0.29 | 0.28 | 64 | 1007.4 |
| 20260506204924 | 68 | 251 | 1.0 | 6.0 | 0.00 | 0.29 | 0.28 | 65 | 1007.3 |
| 20260506204621 | 68 | 202 | 0.0 | 6.0 | 0.00 | 0.29 | 0.28 | 64 | 1007.2 |
| 20260506204318 | 68 | 254 | 0.0 | 6.0 | 0.00 | 0.29 | 0.28 | 65 | 1007.4 |
| 20260506204006 | 68 | 217 | 1.0 | 6.0 | 0.00 | 0.29 | 0.28 | 65 | 1007.4 |
| 20260506203652 | 68 | 227 | 1.0 | 6.0 | 0.00 | 0.29 | 0.28 | 64 | 1007.3 |
| 20260506203343 | 68 | 223 | 2.0 | 6.0 | 0.00 | 0.29 | 0.28 | 64 | 1007.2 |
| 20260506203041 | 68 | 218 | 2.0 | 9.0 | 0.00 | 0.29 | 0.28 | 64 | 1007.2 |
| 20260506202740 | 68 | 228 | 2.0 | 9.0 | 0.00 | 0.29 | 0.28 | 64 | 1007.3 |
| 20260506202025 | 68 | 253 | 2.0 | 11.0 | 0.00 | 0.29 | 0.28 | 64 | 1007.2 |
| 20260506201714 | 68 | 282 | 2.0 | 11.0 | 0.00 | 0.29 | 0.28 | 64 | 1007.2 |
| 20260506201417 | 68 | 275 | 3.0 | 11.0 | 0.00 | 0.29 | 0.28 | 64 | 1007.2 |
| 20260506201105 | 68 | 257 | 3.0 | 11.0 | 0.00 | 0.29 | 0.28 | 65 | 1007.3 |
| 20260506200804 | 68 | 33 | 4.0 | 11.0 | 0.00 | 0.29 | 0.28 | 64 | 1007.2 |
| 20260506200455 | 68 | 273 | 3.0 | 11.0 | 0.00 | 0.29 | 0.28 | 64 | 1007.3 |
| 20260506200146 | 68 | 297 | 3.0 | 10.0 | 0.00 | 0.29 | 0.28 | 64 | 1007.3 |
| 20260506195836 | 68 | 211 | 3.0 | 10.0 | 0.00 | 0.29 | 0.28 | 64 | 1007.3 |
| 20260506195056 | 68 | 234 | 3.0 | 10.0 | 0.00 | 0.29 | 0.28 | 66 | 1007.2 |
| 20260506194327 | 67 | 263 | 2.0 | 13.0 | 0.00 | 0.29 | 0.28 | 66 | 1007.2 |
| 20260506193553 | 66 | 126 | 3.0 | 13.0 | 0.00 | 0.29 | 0.28 | 66 | 1007.4 |
| 20260506192825 | 65 | 184 | 3.0 | 13.0 | 0.00 | 0.29 | 0.28 | 67 | 1007.6 |
| 20260506192106 | 65 | 169 | 2.0 | 8.0 | 0.00 | 0.29 | 0.28 | 67 | 1007.7 |
| 20260506191757 | 65 | 215 | 2.0 | 7.0 | 0.00 | 0.29 | 0.28 | 67 | 1007.7 |
| 20260506191450 | 65 | 222 | 2.0 | 7.0 | 0.00 | 0.29 | 0.28 | 67 | 1007.7 |
| 20260506191136 | 65 | 222 | 2.0 | 9.0 | 0.00 | 0.29 | 0.28 | 67 | 1007.8 |
| 20260506190833 | 64 | 248 | 2.0 | 9.0 | 0.00 | 0.29 | 0.28 | 68 | 1007.7 |
| 20260506190523 | 64 | 257 | 2.0 | 9.0 | 0.00 | 0.29 | 0.28 | 68 | 1007.7 |
| 20260506190216 | 64 | 298 | 2.0 | 9.0 | 0.00 | 0.29 | 0.28 | 68 | 1007.8 |
| 20260506185908 | 64 | 176 | 2.0 | 9.0 | 0.00 | 0.29 | 0.28 | 68 | 1007.7 |
| 20260506185137 | 64 | 218 | 2.0 | 6.0 | 0.00 | 0.29 | 0.28 | 70 | 1007.8 |
| 20260506184826 | 64 | 200 | 1.0 | 5.0 | 0.00 | 0.29 | 0.28 | 72 | 1007.9 |
| 20260506184528 | 63 | 250 | 2.0 | 5.0 | 0.00 | 0.29 | 0.28 | 74 | 1007.8 |
| 20260506184215 | 63 | 309 | 2.0 | 5.0 | 0.00 | 0.29 | 0.28 | 74 | 1007.8 |
| 20260506183911 | 63 | 215 | 1.0 | 5.0 | 0.00 | 0.29 | 0.28 | 77 | 1007.8 |
| 20260506183149 | 63 | 355 | 0.0 | 1.0 | 0.00 | 0.29 | 0.28 | 77 | 1007.9 |
| 20260506182424 | 63 | 92 | 0.0 | 5.0 | 0.00 | 0.29 | 0.28 | 77 | 1007.9 |
| 20260506182120 | 63 | 39 | 0.0 | 5.0 | 0.00 | 0.29 | 0.28 | 78 | 1007.9 |
| 20260506181824 | 63 | 102 | 0.0 | 5.0 | 0.00 | 0.29 | 0.28 | 78 | 1007.9 |
| 20260506180634 | 63 | 117 | 0.0 | 3.0 | 0.00 | 0.29 | 0.28 | 78 | 1007.9 |